Location: Barrialito
(10.3588°N, 66.9747°W)
Time: 15:52:02
(UTC+00:00)

Cosmos 1862 Rocket - Pass Details

Date: 09 July 2022
Orbit: 603 x 633 km, 82.5° (Epoch: 13 August)

Event Time Altitude Azimuth Distance (km) Brightness Sun altitude
Rises 08:37:55 0° 348° (NNW) 2,847 7.2 -21.7°
Reaches altitude 10° 08:40:09 10° 344° (NNW) 1,947 6.2 -21.2°
Maximum altitude 08:44:21 54° 267° (W) 741 3.6 -20.3°
Enters shadow 08:44:44 52° 246° (WSW) 759 3.6 -20.3°
